Overview Statistics Trail Chart Weather Telemetry Raw packets
 

This is the latest recevied weather packets stored in our database for station/object KA4YMY. If no packets are shown the sender has not sent any weather packets the latest 10 day(s).

<< 53 54 55 56 57 58 >>
Time Temp. Humidity Pressure Rain* Wind** Luminosity Snow
1787749817 21.11° C 94% 1018.9 hPa 0 mm - - -
1787749217 21.11° C 97% 1018.9 hPa 0 mm - - -
1787748616 20° C 94% 1018.9 hPa 0 mm - - -
1787748016 20° C 92% 1018.8 hPa 0 mm - - -
1787747416 19.44° C 91% 1018.8 hPa 0 mm - - -
1787746817 19.44° C 91% 1018.8 hPa 0 mm - - -
1787746216 19.44° C 91% 1018.9 hPa 0 mm - - -
1787745616 19.44° C 90% 1018.9 hPa 0.51 mm - - -
1787745016 20° C 91% 1018.8 hPa 0.51 mm - - -
1787744416 20° C 90% 1018.6 hPa 0.51 mm - - -
1787743816 20° C 90% 1018.3 hPa 0.51 mm - - -
1787743216 20° C 90% 1018.4 hPa 0.51 mm - - -
1787742617 20° C 90% 1018.1 hPa 0.51 mm - - -
1787742019 19.44° C 89% 1018.1 hPa 0 mm - - -
1787741416 19.44° C 88% 1017.9 hPa 0 mm - - -
1787740816 19.44° C 89% 1017.8 hPa 0 mm - - -
1787740216 19.44° C 89% 1017.8 hPa 0 mm - - -
1787739616 19.44° C 89% 1017.7 hPa 0 mm - - -
1787739016 19.44° C 88% 1017.7 hPa 0 mm - - -
1787738416 19.44° C 88% 1017.6 hPa 0 mm - - -
1787737816 19.44° C 89% 1017.4 hPa 0 mm - - -
1787737216 19.44° C 88% 1017.5 hPa 0 mm - - -
1787736616 19.44° C 88% 1017.6 hPa 0 mm - - -
1787736016 19.44° C 88% 1017.6 hPa 0 mm - - -
1787735416 20° C 88% 1017.5 hPa 0 mm - - -

* Rain latest hour (hover to see other rain measurements)
** Current wind speed in m/s (hover to see current wind gust speed)